Flag for Faroe Islands Weather past 2 weeks in Tórshavn, Faroe Islands, Faroe Islands

Now
52 °F

Passing clouds.


Feels Like: 47 °F
Forecast: 50 / 53 °F
Wind: 14 mph from Southwest

Location: Soervaag / Vagar

Current Time: Sep 23, 2014 at 6:12:15 AM

Latest Report: Sep 23, 2014 at 5:20 AM


Visibility: 5 mi

Pressure: 29.77 "Hg

Humidity: 94%

Dew point: 50 °F

Location of TórshavnLocation

Historic Weather in Tórshavn — Graph

°F

Tórshavn temperature yesterday

Maximum temperature yesterday: 55 °F (at 1:50 PM)
Minimum temperature yesterday: 50 °F (at 12:20 AM)
Average temperature yesterday: 52 °F

Past Weeks' High & Low Weather Summary

 TemperatureHumidityPressure
High57 °F (Sep 13, 12:50 PM)100% (Sep 8, 4:20 AM)30.45 "Hg (Sep 8, 4:20 AM)
Low41 °F (Sep 21, 4:20 AM)76% (Sep 20, 6:50 PM)29.77 "Hg (Sep 23, 4:20 AM)
Average52 °F94%30.13 "Hg
* Reported Sep 8 4:20 AM — Sep 23 4:50 AM, Tórshavn, Weather by CustomWeather, © 2014

Note: Actual official high and low records may vary slightly from our data, if they occured in-between our weather recording intervals... More about our weather records

Advertising

Tórshavn weather history for previous 24 hours

 ConditionsComfort  
Time TempWeatherWind HumidityBarometerVisibility
4:50 AM
Sep 23
52 °FPassing clouds.7 mph94%29.77 "Hg4 mi
4:20 AM52 °FPassing clouds.8 mph94%29.77 "Hg4 mi
3:50 AM52 °FPassing clouds.9 mph94%29.80 "Hg6 mi
3:20 AM52 °FPassing clouds.9 mph94%29.80 "Hg6 mi
2:50 AM52 °FLow clouds.13 mph94%29.80 "HgN/A
2:20 AM52 °FRain. Low clouds.9 mph94%29.80 "HgN/A
1:50 AM52 °FRain showers. Passing clouds.15 mph94%29.80 "Hg6 mi
1:20 AM52 °FLow clouds.12 mph94%29.83 "HgN/A
12:50 AM52 °FPassing clouds.9 mph94%29.83 "Hg6 mi
12:20 AM52 °FPassing clouds.9 mph94%29.86 "Hg6 mi
11:50 PM
Sep 22
52 °FSprinkles. Passing clouds.10 mph94%29.86 "Hg5 mi
11:20 PM52 °FLight rain. Passing clouds.10 mph94%29.86 "Hg5 mi
10:50 PM52 °FPassing clouds.9 mph94%29.86 "Hg5 mi
10:20 PM52 °FDrizzle. Low clouds.12 mph94%29.89 "Hg6 mi
9:50 PM52 °FDrizzle. Low clouds.13 mph94%29.89 "Hg6 mi
9:20 PM52 °FLight rain. Partly sunny.9 mph94%29.89 "Hg5 mi
8:50 PM52 °FPartly sunny.13 mph94%29.92 "HgN/A
8:20 PM52 °FPartly sunny.14 mph94%29.92 "HgN/A
7:50 PM52 °FPartly sunny.14 mph94%29.92 "HgN/A
7:20 PM52 °FPartly sunny.13 mph94%29.92 "HgN/A
6:50 PM52 °FPartly sunny.7 mph94%29.95 "HgN/A
6:20 PM52 °FPartly sunny.9 mph94%29.95 "HgN/A
5:50 PM52 °FBroken clouds.6 mph88%29.95 "HgN/A
5:20 PM52 °FBroken clouds.8 mph88%29.95 "HgN/A
4:50 PM54 °FPartly sunny.8 mph82%29.95 "HgN/A
4:20 PM54 °FPartly sunny.10 mph88%29.95 "HgN/A
3:50 PM52 °FPartly sunny.9 mph88%29.95 "HgN/A
3:20 PM54 °FPartly sunny.7 mph82%29.98 "HgN/A
2:50 PM54 °FPartly sunny.7 mph82%29.98 "HgN/A
2:20 PM54 °FScattered clouds.7 mph82%29.98 "HgN/A
1:50 PM55 °FScattered clouds.9 mph77%29.98 "HgN/A
1:20 PM54 °FCool.9 mph88%29.98 "HgN/A
12:50 PM54 °FPassing clouds.9 mph82%29.98 "HgN/A
12:20 PM54 °FPartly sunny.3 mph88%29.98 "HgN/A
11:50 AM52 °FOvercast.5 mph94%29.98 "HgN/A
11:20 AM52 °FPartly sunny.6 mph94%30.01 "HgN/A
10:50 AM50 °FSprinkles. Fog.10 mph100%30.01 "Hg2 mi
10:20 AM50 °FDrizzle. Fog.13 mph100%30.01 "Hg2 mi
9:50 AM52 °FDrizzle. Low clouds.17 mph100%30.01 "Hg3 mi
9:20 AM52 °FLight rain. Low clouds.16 mph94%30.01 "Hg2 mi
8:50 AM50 °FRain. Low clouds.15 mph100%30.01 "Hg2 mi
8:20 AM52 °FLight rain. Fog.17 mph94%30.04 "Hg2 mi
7:50 AM52 °FLight rain. Fog.16 mph94%30.04 "Hg2 mi
7:20 AM52 °FDrizzle. Fog.13 mph94%30.04 "Hg2 mi
6:50 AM52 °FFog.16 mph94%30.07 "Hg2 mi
6:20 AM52 °FFog.17 mph94%30.07 "Hg3 mi
Weather by CustomWeather, © 2014

See weather overviewHow to use our weather pages